COSMOS 2251 DEB, 35650

Orbit data source: Space-Track

COSMOS 2251 DEB, 35650 is space debris in LEO originally from a launch on Wed, 16 Jun 1993 UTC launched from the Plesetsk Missile And Space Complex (PKMTR). The debris from Iridium 33, an American commercial communications satellite, has been tracked extensively since its accidental collision with the defunct Russian satellite Cosmos 2251 in 2009. This event, occurring at high speed in low Earth orbit (LEO), generated thousands of pieces of space debris, significantly increasing the risk of further collisions. The Iridium 33 debris cloud has impacted space traffic management and orbital debris mitigation strategies, making it a subject of ongoing study in space situational awareness.

Loading next visibility...
Identifier
35650, 1993-036ANR
Orbit
LEO
Country
Flag of CISCIS
Related business
Manufacturer
Unknown
Mission
Spacecraft
Bus & Motor
Unknown
Mass
Unknown
Launch date (UTC)
1993-06-16 (33 years ago)
Launch vehicle
Unknown
Launch site
Plesetsk Missile And Space Complex (PKMTR)
Object type
Payload
Rocket body
Debris
Shape & HBR
Unknown shape, 0.1 m
Radar Cross Section
Small (<0.1 m²)

Expand to show TLE details & history
Last TLE update: 2 days ago

TLE from 2 days ago
0 COSMOS 2251 DEB
1 35650U 93036ANR 26033.10821234  .00012245  00000-0  14110-2 0  9998
2 35650  74.0432 277.0195 0015317 316.4465 193.8692 14.85666652883969
Epoch: 2026-02-02T02:35Z
TLE epoch observation values (Epoch: 2026-02-02T02:35:49.546Z)
Latitude
28.52626°
Longitude
-83.13725°
Altitude
625.144 km
Speed
7.543 km/s
True Right ascension
05h 52m 30s
True Declination
28° 22' 46"
Sunlit
Object was in full shadow at epoch
Visualization orbit readout
Latitude
Unknown
Longitude
Unknown
Altitude
Unknown
Speed
Unknown
Apparent Right ascension
Unknown
Apparent Declination
Unknown
Sunlit
N/A
Visualization observer readout
Local Sidereal Time
19:37:03
Azimuth
Unknown
Elevation
Unknown
Doppler factor
Unknown
Orbital elements
Apogee altitude
619.765 km
Perigee altitude
598.361 km
Semi-major axis
6,987.2 km
Eccentricity
0.00153
Inclination
74.0432°
RAAN
277.0195°
Arg. of periapsis
316.4465°
True anomaly
193.8272°
Mean anomaly
193.8692°
Eccentric anomaly
193.84819°
Mean motion
3.71611 °/min
Orbital period
96.88 mins
BSTAR
0.001411
Loading maneuver chart data...
Computing Atmospheric mass density...

Documentation

Showing up to 5 results
|